Location: Chagrin Falls Park
(41.4139°N, 81.3865°W)
Time: 03:01:46
(UTC+00:00)

Envisat - Pass Details

Date: 30 July 2021
Orbit: 764 x 766 km, 98.2° (Epoch: 22 September)

Event Time Altitude Azimuth Distance (km) Brightness Sun altitude
Rises 09:20:24 0° 34° (NE) 3,241 7.8 -10.2°
Reaches altitude 10° 09:24:03 10° 61° (ENE) 2,307 7.1 -9.7°
Maximum altitude 09:26:25 13° 89° (E) 2,083 6.2 -9.3°
Drops below altitude 10° 09:28:48 10° 118° (ESE) 2,299 5.9 -8.9°
Sets 09:32:24 0° 144° (SE) 3,218 6.3 -8.4°
